TimeEDT,TemperatureF,Dew PointF,Humidity,Sea Level PressureIn,VisibilityMPH,Wind Direction,Wind SpeedMPH,Gust SpeedMPH,PrecipitationIn,Events,Conditions,WindDirDegrees,DateUTC
12:15 AM,35.6,31.1,84,30.20,10.0,NW,4.6,-,N/A,,Overcast,320,2013-03-27 04:15:00
12:35 AM,35.1,31.5,87,30.20,10.0,North,4.6,-,N/A,,Overcast,350,2013-03-27 04:35:00
12:55 AM,35.2,31.1,85,30.20,10.0,NNW,5.8,-,N/A,,Overcast,340,2013-03-27 04:55:00
1:15 AM,35.2,30.7,84,30.21,10.0,NNW,9.2,-,N/A,,Overcast,330,2013-03-27 05:15:00
1:35 AM,34.7,31.1,87,30.20,10.0,NNW,5.8,-,N/A,,Overcast,330,2013-03-27 05:35:00
1:55 AM,34.7,31.5,88,30.20,10.0,NW,4.6,-,N/A,,Overcast,310,2013-03-27 05:55:00
2:15 AM,34.7,31.6,89,30.20,10.0,NW,4.6,-,N/A,,Overcast,310,2013-03-27 06:15:00
2:35 AM,34.7,31.6,89,30.21,10.0,NW,4.6,-,N/A,,Overcast,310,2013-03-27 06:35:00
2:55 AM,34.7,31.5,88,30.21,10.0,Calm,Calm,-,N/A,,Overcast,0,2013-03-27 06:55:00
3:15 AM,34.7,31.6,89,30.21,10.0,WNW,3.5,-,N/A,,Overcast,290,2013-03-27 07:15:00
3:35 AM,34.3,31.8,90,30.21,10.0,WNW,3.5,-,N/A,,Overcast,300,2013-03-27 07:35:00
3:55 AM,34.2,31.6,90,30.21,10.0,WNW,3.5,-,N/A,,Overcast,290,2013-03-27 07:55:00
4:15 AM,34.0,31.6,91,30.21,10.0,WNW,4.6,-,N/A,,Overcast,290,2013-03-27 08:15:00
4:34 AM,33.8,31.1,90,30.21,10.0,Calm,Calm,-,N/A,,Scattered Clouds,0,2013-03-27 08:34:00
4:55 AM,33.3,31.1,92,30.21,10.0,WNW,4.6,-,N/A,,Scattered Clouds,300,2013-03-27 08:55:00
5:15 AM,33.6,31.6,92,30.21,10.0,Calm,Calm,-,N/A,,Mostly Cloudy,0,2013-03-27 09:15:00
5:34 AM,33.8,31.5,91,30.21,10.0,Calm,Calm,-,N/A,,Overcast,0,2013-03-27 09:34:00
5:55 AM,33.6,31.3,91,30.21,10.0,NW,3.5,-,N/A,,Overcast,310,2013-03-27 09:55:00
6:15 AM,34.0,31.1,89,30.21,10.0,Calm,Calm,-,N/A,,Overcast,0,2013-03-27 10:15:00
6:35 AM,33.8,31.5,91,30.22,10.0,Calm,Calm,-,N/A,,Overcast,0,2013-03-27 10:35:00
6:55 AM,34.0,31.6,91,30.22,10.0,Calm,Calm,-,N/A,,Overcast,0,2013-03-27 10:55:00
7:15 AM,34.0,31.8,92,30.22,10.0,Calm,Calm,-,N/A,,Overcast,0,2013-03-27 11:15:00
7:35 AM,34.0,32.0,92,30.22,10.0,Calm,Calm,-,N/A,,Overcast,0,2013-03-27 11:35:00
7:55 AM,34.2,32.0,92,30.22,10.0,Calm,Calm,-,N/A,,Overcast,0,2013-03-27 11:55:00
8:15 AM,34.9,32.0,89,30.23,10.0,NW,4.6,-,N/A,,Overcast,320,2013-03-27 12:15:00
8:35 AM,35.6,32.0,87,30.24,10.0,NNW,8.1,-,N/A,,Mostly Cloudy,330,2013-03-27 12:35:00
8:54 AM,36.3,32.0,84,30.24,10.0,NW,6.9,-,N/A,,Scattered Clouds,320,2013-03-27 12:54:00
9:15 AM,37.0,31.8,81,30.25,10.0,NNW,8.1,-,N/A,,Scattered Clouds,330,2013-03-27 13:15:00
9:35 AM,37.4,31.5,79,30.25,10.0,NW,10.4,-,N/A,,Mostly Cloudy,310,2013-03-27 13:35:00
9:55 AM,37.6,31.5,79,30.26,10.0,NNW,8.1,-,N/A,,Overcast,340,2013-03-27 13:55:00
10:15 AM,38.1,30.4,74,30.26,10.0,NNW,10.4,16.1,N/A,,Overcast,330,2013-03-27 14:15:00
10:35 AM,38.5,30.0,72,30.26,10.0,NNW,12.7,16.1,N/A,,Scattered Clouds,330,2013-03-27 14:35:00
10:55 AM,38.8,28.6,67,30.26,10.0,NW,10.4,17.3,N/A,,Clear,320,2013-03-27 14:55:00
11:15 AM,39.2,27.5,63,30.27,10.0,NW,11.5,18.4,N/A,,Clear,310,2013-03-27 15:15:00
11:35 AM,39.6,28.9,66,30.27,10.0,NW,9.2,19.6,N/A,,Clear,320,2013-03-27 15:35:00
11:54 AM,40.1,28.0,62,30.27,10.0,NNW,13.8,18.4,N/A,,Clear,330,2013-03-27 15:54:00
12:14 PM,40.5,28.8,63,30.27,10.0,NW,11.5,18.4,N/A,,Clear,320,2013-03-27 16:14:00
12:34 PM,40.5,29.7,65,30.27,10.0,NW,11.5,17.3,N/A,,Clear,310,2013-03-27 16:34:00
12:54 PM,40.3,29.1,64,30.27,10.0,WNW,12.7,23.0,N/A,,Clear,300,2013-03-27 16:54:00
1:15 PM,40.5,28.4,62,30.28,10.0,NW,13.8,19.6,N/A,,Clear,310,2013-03-27 17:15:00
1:35 PM,40.8,29.5,64,30.28,10.0,WNW,12.7,18.4,N/A,,Clear,300,2013-03-27 17:35:00
1:54 PM,40.1,28.9,64,30.28,10.0,WNW,12.7,-,N/A,,Clear,290,2013-03-27 17:54:00
2:15 PM,40.6,29.8,65,30.27,10.0,WNW,13.8,17.3,N/A,,Clear,290,2013-03-27 18:15:00
2:35 PM,40.1,28.6,63,30.28,10.0,West,15.0,19.6,N/A,,Clear,280,2013-03-27 18:35:00
2:55 PM,40.5,27.7,60,30.27,10.0,WNW,12.7,18.4,N/A,,Clear,290,2013-03-27 18:55:00
3:15 PM,40.8,28.2,61,30.27,10.0,West,15.0,-,N/A,,Clear,280,2013-03-27 19:15:00
3:35 PM,40.3,27.7,61,30.27,10.0,WNW,13.8,19.6,N/A,,Clear,300,2013-03-27 19:35:00
3:55 PM,40.3,27.0,59,30.27,10.0,West,15.0,21.9,N/A,,Clear,280,2013-03-27 19:55:00
4:15 PM,40.5,26.8,58,30.27,10.0,WNW,11.5,20.7,N/A,,Clear,290,2013-03-27 20:15:00
4:35 PM,41.0,26.6,57,30.27,10.0,West,12.7,18.4,N/A,,Clear,280,2013-03-27 20:35:00
4:55 PM,40.5,24.6,53,30.27,10.0,WNW,9.2,16.1,N/A,,Clear,300,2013-03-27 20:55:00
5:15 PM,40.3,23.9,52,30.27,10.0,WNW,12.7,17.3,N/A,,Clear,290,2013-03-27 21:15:00
5:35 PM,40.6,23.0,49,30.26,10.0,WNW,6.9,17.3,N/A,,Clear,300,2013-03-27 21:35:00
5:55 PM,40.5,21.9,48,30.26,10.0,NW,11.5,16.1,N/A,,Clear,310,2013-03-27 21:55:00
6:15 PM,39.7,23.4,52,30.27,10.0,WNW,6.9,-,N/A,,Clear,300,2013-03-27 22:15:00
6:35 PM,39.0,26.1,60,30.27,10.0,West,10.4,-,N/A,,Clear,280,2013-03-27 22:35:00
6:55 PM,38.7,25.3,59,30.27,10.0,WNW,8.1,-,N/A,,Clear,290,2013-03-27 22:55:00
7:15 PM,38.3,25.3,60,30.27,10.0,WNW,8.1,-,N/A,,Clear,290,2013-03-27 23:15:00
7:34 PM,37.4,25.9,63,30.27,10.0,West,5.8,-,N/A,,Clear,280,2013-03-27 23:34:00
7:54 PM,36.5,26.4,67,30.27,10.0,WNW,5.8,-,N/A,,Clear,290,2013-03-27 23:54:00
8:15 PM,35.6,26.6,70,30.27,10.0,West,4.6,-,N/A,,Clear,280,2013-03-28 00:15:00
8:34 PM,34.9,27.1,73,30.27,10.0,West,4.6,-,N/A,,Clear,280,2013-03-28 00:34:00
8:55 PM,34.7,27.0,73,30.27,10.0,West,4.6,-,N/A,,Clear,270,2013-03-28 00:55:00
9:15 PM,34.7,27.1,74,30.27,10.0,West,5.8,-,N/A,,Clear,280,2013-03-28 01:15:00
9:35 PM,34.7,26.4,72,30.28,10.0,West,4.6,-,N/A,,Clear,280,2013-03-28 01:35:00
9:55 PM,34.3,26.4,73,30.28,10.0,West,5.8,-,N/A,,Clear,270,2013-03-28 01:55:00
10:15 PM,34.2,26.2,73,30.28,10.0,West,3.5,-,N/A,,Clear,270,2013-03-28 02:15:00
10:35 PM,34.2,26.1,72,30.28,10.0,West,3.5,-,N/A,,Clear,270,2013-03-28 02:35:00
10:55 PM,33.8,26.1,73,30.28,10.0,West,4.6,-,N/A,,Clear,270,2013-03-28 02:55:00
11:14 PM,33.8,26.2,74,30.28,10.0,West,3.5,-,N/A,,Clear,270,2013-03-28 03:14:00
11:35 PM,33.8,27.5,78,30.28,10.0,West,3.5,-,N/A,,Clear,270,2013-03-28 03:35:00
11:55 PM,33.6,26.4,75,30.28,10.0,West,4.6,-,N/A,,Clear,260,2013-03-28 03:55:00